"Pseudo-MPEC" for P22gvdk

Created 2025 Oct 18 0:35:18 UT using Find_Orb

Click here for an explanation of pseudo-MPECs

 
 Astrometry: 
     P22gvdk* C2025 10 15.44796903 39 31.589+30 16 22.95   ~AFCK 21.90wXNEOCPF52
     P22gvdk  C2025 10 15.45816003 39 30.726+30 16 11.50   ~AFCK 22.30wXNEOCPF52
     P22gvdk  C2025 10 15.46837303 39 29.857+30 15 59.98   ~AFCK 22.01wXNEOCPF52
     P22gvdk  C2025 10 15.52827903 39 24.713+30 14 53.40   ~AFHK 22.16GVNEOCPF52
     P22gvdk  C2025 10 15.52908603 39 24.636+30 14 52.44   ~AFHK 21.83GVNEOCPF52
     P22gvdk KC2025 10 16.32849603 38 18.41 +29 59 50.0    ~AG8Z 22.0 GVNEOCPH21
     P22gvdk KC2025 10 16.33446703 38 17.90 +29 59 43.4    ~AG8Z 22.3 GVNEOCPH21

Station data:
(F52) Pan-STARRS 2, Haleakala  (N20.707382 W156.255910)  US/Hawaii.
   Observers J. Herman, T. Lowe, P. Minguez, A. Schultz, I. Smith. Measurers
   K. Chambers, T. de Boer, J. Fairlamb, H. Gao, M. Huber, C.-C. Lin, E.
   Magnier, Y. Ramanjooloo, R. Wainscoat, R. Weryk. 1.8-m Ritchey-Chrétien +
   CCD.
(H21) Astronomical Research Observatory, Westfield  (N39.483054 W87.968270)
   US/Illinois.  Observer R. Holmes. Measurers S. Foglia, L. Buzzi, T.
   Linder, R. Holmes. 0.40-m f/5.32 astrograph + CCD.

Orbital elements:  P22gvdk
   Perihelion 2025 Jun 14.247195 +/- 46.6 TT =  5:55:57.6 (JD 2460840.747195)
Epoch 2025 Oct 16.0 TT = JDT 2460964.5   Earth MOID: 0.2668   Ma: 0.0441
M  12.408714617 +/- 46              (J2000 ecliptic)             AutoNEOCP
n   0.100270168 +/- 0.121           Peri.   71.701236 +/- 22
a   4.588684715 +/- 3.69            Node   233.753209 +/- 1.3
e   0.77550736 +/- 0.167            Incl.   25.061715 +/- 4.6
P   9.82952                H 19.61  G  0.15   U 11.3  SR
q 1.030125900 +/- 0.0416    Q 8.147243531 +/- 2.54
From 7 observations 2025 Oct. 15-16 (21.3 hr); mean residual 0".10
Residuals in arcseconds: 
251015 F52  .17-  .11+    251015 F52  .14+  .10+    251016 H21  .01-  .05+    
251015 F52  .04-  .04-    251015 F52  .04+  .05+    
251015 F52  .05+  .21-    251016 H21  .09-  .10-    

Ephemerides (geocentric):
Date (UTC) HH   RA             Dec           delta  r     elong  mag " sig PA
---- --------  ------------   ------------  ------ ------ -----  --- --------
2025 10 18 01  03 35 53.902   +29 27 17.27  1.0794 1.9779 144.6 22.2 21.4 134
2025 10 18 02  03 35 50.348   +29 26 29.32  1.0795 1.9783 144.7 22.2 22.3 134
2025 10 18 03  03 35 46.792   +29 25 41.34  1.0796 1.9787 144.8 22.2 23.2 134
2025 10 18 04  03 35 43.234   +29 24 53.35  1.0797 1.9792 144.8 22.2 24.1 134
2025 10 18 05  03 35 39.675   +29 24 05.34  1.0798 1.9796 144.9 22.2 25.0 134
2025 10 18 06  03 35 36.113   +29 23 17.31  1.0799 1.9800 144.9 22.2 26.0 134
2025 10 18 07  03 35 32.551   +29 22 29.26  1.0800 1.9804 145.0 22.2 27.0 134
2025 10 18 08  03 35 28.986   +29 21 41.19  1.0801 1.9808 145.0 22.2 28.0 134
2025 10 18 09  03 35 25.420   +29 20 53.10  1.0803 1.9812 145.1 22.2 29.0 134
2025 10 18 10  03 35 21.852   +29 20 05.00  1.0804 1.9816 145.2 22.2 30.0 134
2025 10 18 11  03 35 18.282   +29 19 16.87  1.0805 1.9820 145.2 22.2 31.1 134
2025 10 18 12  03 35 14.711   +29 18 28.72  1.0806 1.9824 145.3 22.2 32.1 134
2025 10 18 13  03 35 11.138   +29 17 40.56  1.0807 1.9828 145.3 22.2 33.2 134
2025 10 18 14  03 35 07.563   +29 16 52.38  1.0808 1.9832 145.4 22.2 34.3 134
2025 10 18 15  03 35 03.987   +29 16 04.17  1.0809 1.9837 145.4 22.2 35.5 134
2025 10 18 16  03 35 00.409   +29 15 15.95  1.0811 1.9841 145.5 22.2 36.6 134
2025 10 18 17  03 34 56.830   +29 14 27.71  1.0812 1.9845 145.6 22.2 37.8 134
2025 10 18 18  03 34 53.249   +29 13 39.46  1.0813 1.9849 145.6 22.2 38.9 134
2025 10 18 19  03 34 49.666   +29 12 51.18  1.0814 1.9853 145.7 22.2 40.1 134
2025 10 18 20  03 34 46.082   +29 12 02.88  1.0815 1.9857 145.7 22.2 41.3 134
2025 10 18 21  03 34 42.496   +29 11 14.57  1.0817 1.9861 145.8 22.2 42.6 134
2025 10 18 22  03 34 38.909   +29 10 26.24  1.0818 1.9865 145.8 22.2 43.8 134
2025 10 18 23  03 34 35.320   +29 09 37.89  1.0819 1.9869 145.9 22.2 45.1 134
2025 10 19 00  03 34 31.729   +29 08 49.52  1.0820 1.9873 146.0 22.2 46.4 134
2025 10 19 01  03 34 28.138   +29 08 01.13  1.0821 1.9877 146.0 22.2 47.7 134
2025 10 19 02  03 34 24.544   +29 07 12.73  1.0823 1.9882 146.1 22.2 49.0 134
2025 10 19 03  03 34 20.949   +29 06 24.30  1.0824 1.9886 146.1 22.2 50.3 134
2025 10 19 04  03 34 17.352   +29 05 35.86  1.0825 1.9890 146.2 22.2 51.7 134
2025 10 19 05  03 34 13.754   +29 04 47.40  1.0826 1.9894 146.2 22.2 53.1 134
2025 10 19 06  03 34 10.155   +29 03 58.92  1.0827 1.9898 146.3 22.2 54.5 134
2025 10 19 07  03 34 06.554   +29 03 10.43  1.0829 1.9902 146.4 22.2 55.9 134
2025 10 19 08  03 34 02.951   +29 02 21.91  1.0830 1.9906 146.4 22.2 57.3 134
2025 10 19 09  03 33 59.348   +29 01 33.38  1.0831 1.9910 146.5 22.2 58.7 134
2025 10 19 10  03 33 55.742   +29 00 44.83  1.0832 1.9914 146.5 22.2 60.2 134
2025 10 19 11  03 33 52.135   +28 59 56.26  1.0834 1.9918 146.6 22.2 61.7 134
2025 10 19 12  03 33 48.527   +28 59 07.68  1.0835 1.9922 146.7 22.2 63.2 134
2025 10 19 13  03 33 44.917   +28 58 19.08  1.0836 1.9926 146.7 22.2 64.7 134
2025 10 19 14  03 33 41.306   +28 57 30.46  1.0837 1.9931 146.8 22.2 66.3 134
2025 10 19 15  03 33 37.694   +28 56 41.82  1.0839 1.9935 146.8 22.1 67.8 134
2025 10 19 16  03 33 34.080   +28 55 53.16  1.0840 1.9939 146.9 22.1 69.4 134
2025 10 19 17  03 33 30.465   +28 55 04.49  1.0841 1.9943 146.9 22.1 71.0 134
2025 10 19 18  03 33 26.848   +28 54 15.80  1.0843 1.9947 147.0 22.1 72.6 134
2025 10 19 19  03 33 23.230   +28 53 27.10  1.0844 1.9951 147.1 22.1 74.2 134
2025 10 19 20  03 33 19.611   +28 52 38.37  1.0845 1.9955 147.1 22.1 75.9 134
2025 10 19 21  03 33 15.990   +28 51 49.63  1.0846 1.9959 147.2 22.1 77.5 134
2025 10 19 22  03 33 12.368   +28 51 00.87  1.0848 1.9963 147.2 22.1 79.2 134
2025 10 19 23  03 33 08.745   +28 50 12.10  1.0849 1.9967 147.3 22.1 80.9 134
2025 10 20 00  03 33 05.120   +28 49 23.30  1.0850 1.9971 147.3 22.1 82.7 134